Location: Diebersbach
(48.5163°N, 8.0558°E)
Time: 15:10:42
(UTC+00:00)

OE (NEXTSAT) - Pass Details

Date: 20 June 2021
Orbit: 425 x 430 km, 46.0° (Epoch: 31 July)

Event Time Altitude Azimuth Distance (km) Brightness Sun altitude
Exits shadow 01:21:53 20° 245° (WSW) 1,037 5.8 -13.8°
Maximum altitude 01:23:59 54° 174° (S) 527 4.4 -13.6°
Drops below altitude 10° 01:27:20 10° 96° (E) 1,519 7.4 -13.4°
Sets 01:29:29 0° 92° (E) 2,384 8.4 -13.2°
